"2009-04-08 00:00:00",780813,8.94,300.1,0.942,0.24,13.55,105.8009,14.12,15.13,10.08,0,110.5,13.28,14.92,262.1
"2009-04-08 00:00:30",780814,9.35,297.7,1.046,0.202,13.67,105.795,14.11,15.11,10.59,0,110.5,13.28,14.91,259.7
"2009-04-08 00:01:00",780815,9.54,300.1,1.549,0.138,13.92,105.7863,14.09,15.13,10.94,0,110.5,13.28,14.89,262.1
"2009-04-08 00:01:30",780816,10.58,306.7,5.617,0.993,15.03,105.7835,14.08,15.13,10.88,0,110.5,13.25,14.88,268.7
"2009-04-08 00:02:00",780817,11.17,306.9,6.519,1.379,15.79,105.7798,14.07,15.25,10.99,0,110.5,13.25,14.87,268.9
"2009-04-08 00:02:30",780818,10,306.3,2.232,0.271,13.89,105.7807,14.07,15.14,10.97,0,110.5,13.29,14.87,268.3
"2009-04-08 00:03:00",780819,9.56,304.8,1.061,0.291,13.7,105.779,14.07,15.12,11,0,110.5,13.29,14.87,266.8
"2009-04-08 00:03:30",780820,9.79,302.8,2.528,0.193,13.72,105.7805,14.07,15.13,11.05,0,110.5,13.29,14.87,264.8
"2009-04-08 00:04:00",780821,9.96,306.7,6.628,0.935,15.02,105.7814,14.07,15.28,11.02,0,110.5,13.26,14.87,268.7
"2009-04-08 00:04:30",780822,9.73,307.7,7.832,1.375,14.98,105.7864,14.09,15.1,10.59,0,110.5,13.26,14.89,269.7
"2009-04-08 00:05:00",780823,9.11,304.7,1.551,0.218,13.8,105.7879,14.09,15.12,10.63,0,110.5,13.3,14.89,266.7
"2009-04-08 00:05:30",780824,9.34,304.7,1.605,0.471,13.78,105.7915,14.1,15.12,10.78,0,110.4,13.3,14.90,266.7
"2009-04-08 00:06:00",780825,9.55,304.6,0.907,0.195,13.97,105.7957,14.11,15.12,10.83,0,110.4,13.3,14.91,266.6
"2009-04-08 00:06:30",780826,9.13,304.2,1.424,0.151,14.13,105.8016,14.12,15.13,10.63,0,110.4,13.3,14.93,266.2
"2009-04-08 00:07:00",780827,8.79,301.2,1.445,0.287,14.3,105.8055,14.13,15.13,10.38,0,110.5,13.3,14.94,263.2
"2009-04-08 00:07:30",780828,8.83,302.6,1.241,0.359,14.3,105.8094,14.14,15.13,10.3,0,110.4,13.3,14.95,264.6
"2009-04-08 00:08:00",780829,8.68,303.2,0.782,0.18,14.37,105.8132,14.15,15.14,10.42,0,110.5,13.3,14.96,265.2
"2009-04-08 00:08:30",780830,8.49,305,2.906,0.258,14.42,105.8147,14.16,15.13,10.3,0,110.5,13.31,14.96,267.0
"2009-04-08 00:09:00",780831,9.12,306.5,3.694,1.12,14.81,105.8147,14.16,15.13,10.35,0,110.4,13.27,14.96,268.5
"2009-04-08 00:09:30",780832,9.54,309.4,7.393,1.435,16.32,105.8147,14.16,15.28,10.58,0,110.4,13.27,14.96,271.4
"2009-04-08 00:10:00",780833,8.44,304.1,1.586,0.251,14.18,105.8147,14.16,15.21,10.47,0,110.4,13.31,14.96,266.1
"2009-04-08 00:10:30",780834,8.15,305.1,0.949,0.307,13.91,105.8147,14.16,15.14,10.32,0,110.4,13.31,14.96,267.1
"2009-04-08 00:11:00",780835,8.35,305.1,2.407,0.368,13.78,105.8147,14.16,15.14,10.34,0,110.4,13.31,14.96,267.1
"2009-04-08 00:11:30",780836,7.91,304.3,2.338,0.317,13.87,105.8147,14.16,15.14,10.43,0,110.4,13.31,14.96,266.3
"2009-04-08 00:12:00",780837,7.931,312.3,2.8,0.375,13.99,105.8147,14.16,15.15,10.4,0,110.4,13.31,14.96,274.3
"2009-04-08 00:12:30",780838,8,308.6,3.148,0.178,14.13,105.8147,14.16,15.15,10.38,0,110.4,13.31,14.96,270.6
"2009-04-08 00:13:00",780839,7.341,303.7,1.282,0.339,14.24,105.8147,14.16,15.16,10.29,0,110.4,13.31,14.96,265.7
"2009-04-08 00:13:30",780840,9.39,306.5,2.129,0.619,14.2,105.8147,14.16,15.15,10.35,0,110.4,13.31,14.96,268.5
"2009-04-08 00:14:00",780841,10.58,311.9,7.416,1.443,16.24,105.8147,14.16,15.24,10.7,0,110.4,13.28,14.96,273.9
"2009-04-08 00:14:30",780842,11.22,311.9,6.691,1.627,16.19,105.8147,14.16,15.31,10.76,0,110.4,13.28,14.96,273.9
"2009-04-08 00:15:00",780843,9.91,308.1,1.661,0.332,14.25,105.8147,14.16,15.17,10.49,0,110.4,13.31,14.96,270.1
"2009-04-08 00:15:30",780844,9.45,310.1,2.054,0.447,14.17,105.8147,14.16,15.18,10.19,0,110.4,13.31,14.96,272.1
"2009-04-08 00:16:00",780845,9.17,307.9,1.53,0.281,14.21,105.8147,14.16,15.17,10.26,0,110.4,13.31,14.96,269.9
"2009-04-08 00:16:30",780846,8.65,308.4,2.823,0.265,14.32,105.8147,14.16,15.17,10.28,0,110.4,13.31,14.96,270.4
"2009-04-08 00:17:00",780847,8.74,307.4,1.125,0.525,14.4,105.8147,14.16,15.17,10.16,0,110.4,13.31,14.96,269.4
"2009-04-08 00:17:30",780848,9.16,306.8,2.313,0.29,14.44,105.8147,14.16,15.18,10.24,0,110.4,13.31,14.96,268.8
"2009-04-08 00:18:00",780849,10.57,313.9,6.962,1.012,16.16,105.815,14.16,15.25,10.4,0,110.4,13.27,14.96,275.9
"2009-04-08 00:18:30",780850,11.21,314.4,6.928,1.298,16.11,105.8147,14.16,15.31,10.7,0,110.4,13.27,14.96,276.4
"2009-04-08 00:19:00",780851,11.01,310.7,4.781,1.143,14.46,105.815,14.16,15.27,10.96,0,110.4,13.27,14.96,272.7
"2009-04-08 00:19:30",780852,12.01,314.8,7.21,1.449,15.96,105.8153,14.16,15.27,10.92,0,110.4,13.27,14.96,276.8
"2009-04-08 00:20:00",780853,11.43,314.4,7.84,1.155,15.16,105.8159,14.16,15.34,10.88,0,110.4,13.27,14.96,276.4
"2009-04-08 00:20:30",780854,11.47,317.9,7.315,1.363,15.83,105.8186,14.17,15.44,10.85,0,110.4,13.27,14.97,279.9
"2009-04-08 00:21:00",780855,10.93,315.7,5.543,1.21,15.14,105.8213,14.18,15.27,10.55,0,110.4,13.27,14.98,277.7
"2009-04-08 00:21:30",780856,9.77,308,3.056,0.208,13,105.8231,14.18,15.18,10.36,0,110.4,13.31,14.98,270.0
"2009-04-08 00:22:00",780857,9.48,309.2,1.26,0.311,13.16,105.8276,14.19,15.19,10.28,0,110.4,13.31,14.99,271.2
"2009-04-08 00:22:30",780858,9.07,308.7,1.649,0.59,13.5,105.829,14.19,15.19,10.19,0,110.4,13.32,15.00,270.7
"2009-04-08 00:23:00",780859,10.35,307.8,2.005,0.342,13.62,105.8326,14.2,15.19,10.28,0,110.4,13.32,15.01,269.8
"2009-04-08 00:23:30",780860,10.88,311.9,7.917,1.337,15.37,105.8354,14.21,15.22,10.43,0,110.4,13.28,15.01,273.9
"2009-04-08 00:24:00",780861,11.02,314,6.953,2.025,16.03,105.8331,14.21,15.33,10.48,0,110.4,13.28,15.01,276.0
"2009-04-08 00:24:30",780862,10.33,306.8,3.299,0.785,13.94,105.8355,14.21,15.18,10.29,0,110.4,13.28,15.01,268.8
"2009-04-08 00:25:00",780863,10.88,309.7,1.739,0.452,13.73,105.8343,14.21,15.18,10.34,0,110.4,13.32,15.01,271.7
"2009-04-08 00:25:30",780864,13.14,319.1,7.465,1.337,16.92,105.827,14.19,15.39,10.6,0,110.4,13.28,14.99,281.1
"2009-04-08 00:26:00",780865,12.66,316,6.681,1.411,17.3,105.8217,14.18,15.38,10.57,0,110.4,13.28,14.98,278.0
"2009-04-08 00:26:30",780866,10.96,310,5.468,1.124,14.61,105.8164,14.16,15.3,10.38,0,110.4,13.28,14.96,272.0
"2009-04-08 00:27:00",780867,10.52,306.7,1.837,0.288,13.16,105.8164,14.16,15.16,10.17,0,110.4,13.32,14.96,268.7
"2009-04-08 00:27:30",780868,11.7,312,6.773,1.456,15.42,105.8167,14.16,15.29,10.36,0,110.4,13.28,14.96,274.0
"2009-04-08 00:28:00",780869,10.14,306.4,3.678,1.026,13.81,105.8167,14.16,15.25,10.33,0,110.4,13.28,14.96,268.4
"2009-04-08 00:28:30",780870,11.11,312.3,5.897,1.215,15.44,105.8167,14.16,15.24,10.18,0,110.4,13.28,14.96,274.3
"2009-04-08 00:29:00",780871,10.08,304.8,3.625,0.54,13.51,105.8167,14.16,15.18,10.25,0,110.4,13.28,14.96,266.8
"2009-04-08 00:29:30",780872,11.24,312.4,8.4,1.596,15.54,105.8167,14.16,15.28,10.34,0,110.4,13.28,14.96,274.4
"2009-04-08 00:30:00",780873,10.1,308.1,2.949,0.63,13.62,105.8167,14.16,15.23,10.28,0,110.4,13.32,14.96,270.1
"2009-04-08 00:30:30",780874,10.86,306.1,2.209,0.168,13.47,105.8167,14.16,15.15,10.3,0,110.4,13.32,14.96,268.1
"2009-04-08 00:31:00",780875,11.85,311.2,6.875,1.482,15.68,105.8167,14.16,15.23,10.43,0,110.4,13.28,14.96,273.2
"2009-04-08 00:31:30",780876,11.6,312,5.757,1.199,15.64,105.8164,14.16,15.29,10.47,0,110.4,13.28,14.96,274.0
"2009-04-08 00:32:00",780877,9.07,307.5,2.998,0.618,13.84,105.8142,14.16,15.14,10.22,0,110.4,13.32,14.96,269.5
"2009-04-08 00:32:30",780878,9.73,308.1,1.796,0.57,13.84,105.8108,14.15,15.18,10.11,0,110.4,13.32,14.95,270.1
"2009-04-08 00:33:00",780879,11.21,315,7.547,1.367,16.37,105.8085,14.14,15.25,10.29,0,110.4,13.28,14.94,277.0
"2009-04-08 00:33:30",780880,11.74,313.7,7.99,1.356,15.76,105.8046,14.13,15.3,10.5,0,110.4,13.28,14.93,275.7
"2009-04-08 00:34:00",780881,11.59,314.1,6.376,1.167,15.78,105.8006,14.12,15.32,10.73,0,110.4,13.28,14.92,276.1
"2009-04-08 00:34:30",780882,12.43,317.5,6.563,1.316,16.61,105.7905,14.1,15.32,10.66,0,110.4,13.28,14.90,279.5
"2009-04-08 00:35:00",780883,11.7,313.8,7.332,1.235,14.98,105.7849,14.08,15.22,10.54,0,110.4,13.28,14.88,275.8
"2009-04-08 00:35:30",780884,10.8,309.9,0.834,0.295,12.86,105.7832,14.08,15.12,10.47,0,110.4,13.32,14.88,271.9
"2009-04-08 00:36:00",780885,12.02,314,7.147,1.474,14.61,105.7829,14.08,15.13,10.47,0,110.4,13.28,14.88,276.0
"2009-04-08 00:36:30",780886,11.44,314.8,6.681,1.152,15.47,105.7829,14.08,15.27,10.49,0,110.4,13.28,14.88,276.8
"2009-04-08 00:37:00",780887,10.02,307.7,1.492,0.352,13.55,105.7829,14.08,15.11,10.2,0,110.4,13.32,14.88,269.7
"2009-04-08 00:37:30",780888,11,309.4,1.139,0.4,13.6,105.7829,14.08,15.11,10.18,0,110.4,13.32,14.88,271.4
"2009-04-08 00:38:00",780889,10.74,309.5,1.966,0.384,13.78,105.7829,14.08,15.1,10.21,0,110.4,13.32,14.88,271.5
"2009-04-08 00:38:30",780890,9.67,308.6,2.191,0.411,13.97,105.7829,14.08,15.11,10.18,0,110.4,13.32,14.88,270.6
"2009-04-08 00:39:00",780891,9.2,306.2,1.783,0.27,14.12,105.7829,14.08,15.11,10.07,0,110.4,13.33,14.88,268.2
"2009-04-08 00:39:30",780892,9.51,309.7,2.044,0.225,14.15,105.7829,14.08,15.1,9.99,0,110.4,13.33,14.88,271.7
"2009-04-08 00:40:00",780893,9.42,308.6,2.011,0.313,14.21,105.7829,14.08,15.11,10.02,0,110.4,13.33,14.88,270.6
"2009-04-08 00:40:30",780894,9.99,309,1.269,0.226,14.26,105.7838,14.08,15.1,10.02,0,110.4,13.33,14.88,271.0
"2009-04-08 00:41:00",780895,11.16,311.2,1.325,0.403,14.19,105.7832,14.08,15.11,10.03,0,110.4,13.33,14.88,273.2
"2009-04-08 00:41:30",780896,10.21,307.5,2.298,0.413,14.21,105.7835,14.08,15.11,9.97,0,110.4,13.33,14.88,269.5
"2009-04-08 00:42:00",780897,10.31,305.1,1.846,0.313,14.16,105.7846,14.08,15.11,9.95,0,110.4,13.33,14.88,267.1
"2009-04-08 00:42:30",780898,9.94,306.8,1.473,0.298,14.27,105.7956,14.11,15.12,9.88,0,110.4,13.33,14.91,268.8
"2009-04-08 00:43:00",780899,10.04,308,3.648,0.378,14.24,105.8134,14.15,15.13,9.8,0,110.4,13.33,14.96,270.0
"2009-04-08 00:43:30",780900,10.93,308,1.65,0.345,14.29,105.8179,14.17,15.14,9.75,0,110.4,13.33,14.97,270.0
"2009-04-08 00:44:00",780901,10.45,307.7,2.251,0.312,14.23,105.8191,14.17,15.15,9.72,0,110.4,13.33,14.97,269.7
"2009-04-08 00:44:30",780902,10.37,307.9,1.741,0.305,14.07,105.8185,14.17,15.17,9.77,0,110.4,13.33,14.97,269.9
"2009-04-08 00:45:00",780903,10.18,306.8,1.592,0.35,14.15,105.8176,14.17,15.17,9.8,0,110.4,13.33,14.97,268.8
"2009-04-08 00:45:30",780904,10,307.3,2.052,0.471,14.15,105.8349,14.21,15.18,9.7,0,110.4,13.33,15.01,269.3
"2009-04-08 00:46:00",780905,9.98,307.8,1.892,0.736,14.09,105.847,14.24,15.2,9.64,0,110.4,13.33,15.04,269.8
"2009-04-08 00:46:30",780906,9.7,308.8,2.42,0.516,14.11,105.8517,14.25,15.21,9.65,0,110.4,13.33,15.05,270.8
"2009-04-08 00:47:00",780907,9.9,310.6,2.484,0.371,14.11,105.8517,14.25,15.24,9.64,0,110.4,13.33,15.05,272.6
"2009-04-08 00:47:30",780908,10.15,309.5,1.33,0.821,14.1,105.8514,14.25,15.23,9.62,0,110.4,13.33,15.05,271.5
"2009-04-08 00:48:00",780909,11.41,309.1,1.073,0.164,13.95,105.859,14.27,15.24,9.81,0,110.4,13.33,15.07,271.1
"2009-04-08 00:48:30",780910,10.72,307.1,2.398,0.325,14.09,105.8787,14.32,15.28,9.89,0,110.4,13.33,15.12,269.1
"2009-04-08 00:49:00",780911,10.31,308.1,1.312,0.196,14.08,105.8841,14.34,15.27,9.85,0,110.4,13.33,15.14,270.1
"2009-04-08 00:49:30",780912,11.05,309.2,1.613,0.439,14.03,105.8846,14.34,15.3,9.91,0,110.4,13.33,15.14,271.2
"2009-04-08 00:50:00",780913,10.34,311.5,0.825,0.5,14.15,105.8843,14.34,15.32,9.93,0,110.4,13.33,15.14,273.5
"2009-04-08 00:50:30",780914,10.37,309.8,2.253,0.351,14.15,105.8917,14.36,15.33,9.84,0,110.4,13.33,15.16,271.8
"2009-04-08 00:51:00",780915,11.37,309.7,1.901,0.489,14.12,105.9049,14.39,15.35,9.79,0,110.4,13.33,15.19,271.7
"2009-04-08 00:51:30",780916,10.94,307.9,1.659,0.249,14.12,105.912,14.41,15.36,9.78,0,110.4,13.33,15.21,269.9
"2009-04-08 00:52:00",780917,10.85,309.3,1.215,0.297,14.12,105.917,14.42,15.37,9.74,0,110.4,13.33,15.22,271.3
"2009-04-08 00:52:30",780918,10.96,309.9,1.211,0.49,14.14,105.9182,14.42,15.38,9.78,0,110.4,13.33,15.23,271.9
"2009-04-08 00:53:00",780919,10.92,309.2,1.9,0.387,14.22,105.9182,14.42,15.39,9.71,0,110.4,13.33,15.23,271.2
"2009-04-08 00:53:30",780920,10.94,310.4,0.921,0.304,14.23,105.9182,14.42,15.4,9.61,0,110.4,13.33,15.23,272.4
"2009-04-08 00:54:00",780921,10.45,308.9,1.707,0.22,14.24,105.9182,14.42,15.42,9.58,0,110.4,13.33,15.23,270.9
"2009-04-08 00:54:30",780922,9.91,310.9,2.897,0.324,14.25,105.9187,14.42,15.43,9.54,0,110.4,13.33,15.23,272.9
"2009-04-08 00:55:00",780923,10.83,309.4,2.147,1.103,14.14,105.9303,14.45,15.43,9.55,0,110.4,13.33,15.26,271.4
"2009-04-08 00:55:30",780924,11.78,308.1,1.251,0.339,13.97,105.9401,14.48,15.43,9.71,0,110.4,13.33,15.28,270.1
"2009-04-08 00:56:00",780925,11.49,309.1,1.262,0.197,14.08,105.9444,14.49,15.46,9.81,0,110.4,13.33,15.29,271.1
"2009-04-08 00:56:30",780926,11.52,311.4,1.316,0.205,14.12,105.9503,14.51,15.47,9.78,0,110.4,13.33,15.31,273.4
"2009-04-08 00:57:00",780927,10.79,309.9,1.353,0.237,14.17,105.952,14.51,15.47,9.73,0,110.4,13.33,15.31,271.9
"2009-04-08 00:57:30",780928,10.42,309.1,2.72,0.366,14.31,105.952,14.51,15.47,9.64,0,110.4,13.33,15.31,271.1
"2009-04-08 00:58:00",780929,10.66,310.3,1.795,0.369,14.34,105.952,14.51,15.48,9.48,0,110.4,13.33,15.31,272.3
"2009-04-08 00:58:30",780930,11.22,309.8,1.535,0.406,14.14,105.952,14.51,15.49,9.53,0,110.4,13.33,15.31,271.8
"2009-04-08 00:59:00",780931,10.76,309.5,2.589,0.634,14.18,105.952,14.51,15.49,9.59,0,110.4,13.33,15.31,271.5
"2009-04-08 00:59:30",780932,10.01,315.4,2.55,0.554,14.22,105.952,14.51,15.51,9.59,0,110.4,13.33,15.31,277.4
"2009-04-08 01:00:00",780933,11.19,311.5,2.439,0.588,14.24,105.952,14.51,15.49,9.53,0,110.4,13.33,15.31,273.5
"2009-04-08 01:00:30",780934,11.88,312.3,2.371,0.465,14.27,105.952,14.51,15.49,9.49,0,110.4,13.33,15.31,274.3
"2009-04-08 01:01:00",780935,10.77,306.3,4.912,0.75,14.32,105.952,14.51,15.49,9.46,0,110.4,13.33,15.31,268.3
"2009-04-08 01:01:30",780936,10.8,310.2,2.752,0.728,14.3,105.952,14.51,15.5,9.39,0,110.4,13.33,15.31,272.2
"2009-04-08 01:02:00",780937,11.11,310.6,1.18,0.146,14.21,105.952,14.51,15.49,9.35,0,110.4,13.33,15.31,272.6
"2009-04-08 01:02:30",780938,10.84,308.3,1.168,0.212,14.21,105.952,14.51,15.5,9.32,0,110.4,13.33,15.31,270.3
"2009-04-08 01:03:00",780939,10.75,310.2,1.881,0.455,14.26,105.952,14.51,15.51,9.35,0,110.4,13.33,15.31,272.2
"2009-04-08 01:03:30",780940,10.65,310.9,3.824,0.684,14.23,105.952,14.51,15.49,9.43,0,110.4,13.33,15.31,272.9
"2009-04-08 01:04:00",780941,10.47,310.6,2.025,0.401,14.22,105.952,14.51,15.5,9.45,0,110.4,13.33,15.31,272.6
"2009-04-08 01:04:30",780942,11.03,311.8,0.765,0.498,14.24,105.952,14.51,15.5,9.47,0,110.4,13.33,15.31,273.8
"2009-04-08 01:05:00",780943,10.94,311.8,2.307,0.217,14.27,105.952,14.51,15.51,9.43,0,110.4,13.33,15.31,273.8
"2009-04-08 01:05:30",780944,10.85,311.6,1.464,0.347,14.35,105.952,14.51,15.5,9.39,0,110.4,13.33,15.31,273.6
"2009-04-08 01:06:00",780945,10.52,309.9,2.378,0.478,14.35,105.952,14.51,15.5,9.4,0,110.4,13.33,15.31,271.9
"2009-04-08 01:06:30",780946,10.78,306.8,2.463,0.496,14.39,105.952,14.51,15.5,9.38,0,110.4,13.33,15.31,268.8
"2009-04-08 01:07:00",780947,10.84,304,1.353,0.278,14.22,105.952,14.51,15.49,9.38,0,110.4,13.32,15.31,266.0
"2009-04-08 01:07:30",780948,10.7,305.8,3.101,0.354,14.14,105.952,14.51,15.5,9.6,0,110.4,13.32,15.31,267.8
"2009-04-08 01:08:00",780949,10.99,306.2,2.261,0.268,14.32,105.952,14.51,15.48,9.55,0,110.4,13.32,15.31,268.2
"2009-04-08 01:08:30",780950,11.57,308.3,1.973,0.818,14.27,105.952,14.51,15.48,9.41,0,110.4,13.32,15.31,270.3
"2009-04-08 01:09:00",780951,13.49,312.4,6.916,1.143,16.02,105.9508,14.51,15.63,9.59,0,110.4,13.29,15.31,274.4
"2009-04-08 01:09:30",780952,12.44,312.5,5.968,1.122,15.46,105.9438,14.49,15.63,9.66,0,110.4,13.28,15.29,274.5
"2009-04-08 01:10:00",780953,11.9,306.1,3.286,0.54,14.22,105.9365,14.47,15.48,9.49,0,110.4,13.29,15.27,268.1
"2009-04-08 01:10:30",780954,12.08,307.1,1.408,0.13,14.04,105.9263,14.44,15.47,9.39,0,110.4,13.32,15.25,269.1
"2009-04-08 01:11:00",780955,11.37,307.9,1.011,0.24,14.1,105.919,14.43,15.46,9.29,0,110.4,13.32,15.23,269.9
"2009-04-08 01:11:30",780956,10.76,306.4,1.482,0.153,14.06,105.9182,14.42,15.46,9.33,0,110.4,13.33,15.23,268.4
"2009-04-08 01:12:00",780957,10.98,307.9,1.06,0.179,14.13,105.9182,14.42,15.46,9.38,0,110.4,13.33,15.23,269.9
"2009-04-08 01:12:30",780958,10.69,306.5,2.844,0.491,14.33,105.9182,14.42,15.44,9.48,0,110.4,13.29,15.23,268.5
"2009-04-08 01:13:00",780959,11.15,309.4,5.854,1.149,15.45,105.9182,14.42,15.55,9.62,0,110.4,13.29,15.23,271.4
"2009-04-08 01:13:30",780960,11.14,310.6,6.972,1.357,15.62,105.9182,14.42,15.51,9.63,0,110.4,13.29,15.23,272.6
"2009-04-08 01:14:00",780961,10.13,308,5.635,1.084,14.42,105.9182,14.42,15.48,9.76,0,110.4,13.29,15.23,270.0
"2009-04-08 01:14:30",780962,10.59,307.1,6.66,1.277,15.03,105.917,14.42,15.5,9.99,0,110.4,13.29,15.22,269.1
"2009-04-08 01:15:00",780963,11.71,314.4,6.236,1.169,17.39,105.9103,14.4,15.59,10.04,0,110.4,13.29,15.21,276.4
"2009-04-08 01:15:30",780964,10.29,306.9,5.422,1.131,14.05,105.9038,14.39,15.46,9.95,0,110.3,13.29,15.19,268.9
"2009-04-08 01:16:00",780965,10.27,306.9,6.354,1.468,14.3,105.8863,14.34,15.4,9.97,0,110.5,13.29,15.14,268.9
"2009-04-08 01:16:30",780966,10.48,310.1,7.421,1.505,14.96,105.8846,14.34,15.57,10.13,0,110.4,13.29,15.14,272.1
"2009-04-08 01:17:00",780967,9.02,301.9,1.037,0.113,12.72,105.8843,14.34,15.38,9.93,0,110.4,13.33,15.14,263.9
"2009-04-08 01:17:30",780968,8.95,303.5,1.478,0.183,12.95,105.8824,14.33,15.36,9.87,0,110.4,13.33,15.13,265.5
"2009-04-08 01:18:00",780969,8.89,302.1,0.624,0.085,13.11,105.8742,14.31,15.35,9.87,0,110.4,13.33,15.11,264.1
"2009-04-08 01:18:30",780970,8.96,302.5,1.173,0.113,13.56,105.8525,14.26,15.35,10.02,0,110.4,13.33,15.06,264.5
"2009-04-08 01:19:00",780971,10.1,308,7.4,1.425,15.67,105.8505,14.25,15.45,9.88,0,110.4,13.29,15.05,270.0
"2009-04-08 01:19:30",780972,9.66,303.4,3.73,0.719,14.25,105.8505,14.25,15.42,9.73,0,110.4,13.32,15.05,265.4
"2009-04-08 01:20:00",780973,9.73,304.9,8.46,1.328,15.05,105.8505,14.25,15.31,9.52,0,110.4,13.29,15.05,266.9
"2009-04-08 01:20:30",780974,9.9,306.1,6.019,1.471,15.78,105.8463,14.24,15.44,9.73,0,110.4,13.29,15.04,268.1
"2009-04-08 01:21:00",780975,8.74,299.7,4.012,0.728,14.22,105.837,14.22,15.42,9.85,0,110.4,13.29,15.02,261.7
"2009-04-08 01:21:30",780976,9.48,301.3,7.344,1.401,15.3,105.819,14.17,15.33,9.86,0,110.4,13.29,14.97,263.3
"2009-04-08 01:22:00",780977,9.47,299.3,7.425,1.274,14.72,105.8167,14.16,15.36,10.03,0,110.4,13.29,14.96,261.3
"2009-04-08 01:22:30",780978,9.55,297.8,5.96,1.352,15.23,105.8167,14.16,15.38,10.2,0,110.4,13.29,14.96,259.8
"2009-04-08 01:23:00",780979,8.02,294.7,2.084,0.162,12.82,105.8167,14.16,15.22,9.98,0,110.4,13.32,14.96,256.7
"2009-04-08 01:23:30",780980,8.66,297,6.662,1.068,13.74,105.8161,14.16,15.21,10.22,0,110.4,13.29,14.96,259.0
"2009-04-08 01:24:00",780981,8.45,297.2,5.779,1.198,14.74,105.802,14.13,15.31,10.49,0,110.4,13.28,14.93,259.2
"2009-04-08 01:24:30",780982,8.26,294.9,5.709,1.076,13.97,105.7863,14.09,15.18,10.46,0,110.4,13.29,14.89,256.9
"2009-04-08 01:25:00",780983,8.94,297.2,7.161,1.393,14.9,105.7832,14.08,15.3,10.65,0,110.4,13.28,14.88,259.2
"2009-04-08 01:25:30",780984,9.15,299.7,6.083,1.155,14.1,105.7832,14.08,15.27,10.43,0,110.4,13.28,14.88,261.7
"2009-04-08 01:26:00",780985,9.73,301.3,6.753,1.238,14.39,105.7818,14.07,15.15,10.12,0,110.4,13.29,14.88,263.3
"2009-04-08 01:26:30",780986,8.73,298,1.747,0.581,13.65,105.7669,14.04,15.22,10.23,0,110.4,13.32,14.84,260.0
"2009-04-08 01:27:00",780987,9.32,301.8,8.23,1.251,16.18,105.7499,13.99,15.15,10.33,0,110.4,13.29,14.79,263.8
"2009-04-08 01:27:30",780988,8.97,300.1,7.801,1.299,16.07,105.7523,14,15.32,10.8,0,110.4,13.29,14.80,262.1
"2009-04-08 01:28:00",780989,9.12,298.8,6.17,1.327,15.41,105.7535,14,15.16,10.54,0,110.4,13.29,14.80,260.8
"2009-04-08 01:28:30",780990,8.14,292.1,1.005,0.194,12.76,105.7546,14,15.05,10.53,0,110.4,13.29,14.81,254.1
"2009-04-08 01:29:00",780991,8.95,299,6.952,1.11,14.48,105.7474,13.99,15.17,10.69,0,110.4,13.29,14.79,261.0
"2009-04-08 01:29:30",780992,8.82,298,4.841,1.006,13.84,105.7324,13.95,15.11,10.57,0,110.4,13.29,14.75,260.0
"2009-04-08 01:30:00",780993,8.7,298.6,4.31,1.092,13.68,105.7299,13.94,15,10.54,0,110.4,13.29,14.74,260.6
"2009-04-08 01:30:30",780994,8.37,295.3,6.3,0.933,14.65,105.7334,13.95,15.14,10.68,0,110.4,13.3,14.75,257.3
"2009-04-08 01:31:00",780995,8.2,294.4,7.591,1.064,13.67,105.737,13.96,14.97,10.5,0,110.4,13.3,14.76,256.4
"2009-04-08 01:31:30",780996,7.959,293,2.63,0.263,13.07,105.7306,13.94,14.95,10.62,0,110.4,13.33,14.74,255.0
"2009-04-08 01:32:00",780997,9.13,296.7,5.462,1.051,14.12,105.7149,13.9,14.99,10.84,0,110.4,13.3,14.70,258.7
"2009-04-08 01:32:30",780998,10.38,301.4,7.197,1.352,16.66,105.7115,13.89,15.18,11.1,0,110.4,13.3,14.69,263.4
"2009-04-08 01:33:00",780999,10.36,298.6,7.815,1.444,16.02,105.7121,13.9,15.06,11.01,0,110.4,13.3,14.70,260.6
"2009-04-08 01:33:30",781000,9.07,290,2.146,0.292,12.7,105.7148,13.9,14.94,10.98,0,110.4,13.34,14.70,252.0
"2009-04-08 01:34:00",781001,10.27,296.3,7.279,1.371,14.63,105.7151,13.9,15,10.99,0,110.4,13.3,14.70,258.3
"2009-04-08 01:34:30",781002,9.04,290.7,5.48,1,13.71,105.703,13.87,15,11.17,0,110.4,13.3,14.67,252.7
"2009-04-08 01:35:00",781003,10.4,294.4,7.237,1.537,14.55,105.6833,13.82,15.01,11.37,0,110.4,13.3,14.62,256.4
"2009-04-08 01:35:30",781004,9.05,287.5,1.779,0.215,12.9,105.6833,13.82,14.92,11.44,0,110.4,13.34,14.62,249.5
"2009-04-08 01:36:00",781005,9.32,286.3,1.035,0.085,12.79,105.6833,13.82,14.82,11.25,0,110.4,13.34,14.62,248.3
"2009-04-08 01:36:30",781006,9.84,290.5,4.993,1.22,14.02,105.6786,13.81,14.8,11.2,0,110.4,13.31,14.61,252.5
"2009-04-08 01:37:00",781007,10.81,295.3,6.811,1.327,16.05,105.6633,13.77,14.98,11.37,0,110.4,13.31,14.57,257.3
"2009-04-08 01:37:30",781008,10.32,293.7,6.661,1.269,15.56,105.6495,13.74,14.96,11.36,0,110.4,13.31,14.54,255.7
"2009-04-08 01:38:00",781009,9.83,291.5,5.237,1.097,13.52,105.6495,13.74,14.82,11.16,0,110.3,13.31,14.54,253.5
"2009-04-08 01:38:30",781010,10.09,295.4,7.757,1.242,14.72,105.6492,13.73,14.86,11.14,0,110.3,13.31,14.53,257.4
"2009-04-08 01:39:00",781011,8.84,289.5,0.773,0.205,12.62,105.6408,13.71,14.75,11.02,0,110.3,13.31,14.51,251.5
"2009-04-08 01:39:30",781012,10.09,294.4,5.992,1.347,14.41,105.618,13.65,14.85,11.21,0,110.3,13.3,14.45,256.4
"2009-04-08 01:40:00",781013,8.75,288.9,1.5,0.228,12.65,105.6157,13.65,14.78,11.27,0,110.3,13.33,14.45,250.9
"2009-04-08 01:40:30",781014,8.66,288.8,2.402,0.207,12.69,105.6157,13.65,14.68,11.28,0,110.3,13.33,14.45,250.8
"2009-04-08 01:41:00",781015,9.08,291,0.979,0.503,12.94,105.6157,13.65,14.67,11.23,0,110.3,13.33,14.45,253.0
"2009-04-08 01:41:30",781016,10.98,297.8,7.369,1.288,15.47,105.6146,13.65,14.9,11.47,0,110.3,13.3,14.45,259.8
"2009-04-08 01:42:00",781017,11.08,299.9,6.59,1.45,16.1,105.6044,13.62,14.83,11.45,0,110.3,13.3,14.42,261.9
"2009-04-08 01:42:30",781018,10.79,297.8,6.638,1.448,14.87,105.5889,13.58,14.75,11.47,0,110.3,13.3,14.38,259.8
"2009-04-08 01:43:00",781019,10.41,298.6,6.919,1.376,14.52,105.5819,13.56,14.73,11.45,0,110.3,13.3,14.36,260.6
"2009-04-08 01:43:30",781020,9.41,292.9,2.473,0.243,12.78,105.5819,13.56,14.73,11.44,0,110.3,13.34,14.36,254.9
"2009-04-08 01:44:00",781021,10.25,299.3,7.139,1.358,14.65,105.5819,13.56,14.69,11.32,0,110.3,13.3,14.36,261.3
"2009-04-08 01:44:30",781022,9.52,290.6,0.905,0.274,12.47,105.5785,13.55,14.59,11.25,0,110.3,13.34,14.35,252.6
"2009-04-08 01:45:00",781023,10.2,293.4,1.542,0.232,12.59,105.5627,13.51,14.55,11.38,0,110.3,13.35,14.31,255.4
"2009-04-08 01:45:30",781024,10.92,298,5.614,1.277,13.96,105.5489,13.48,14.54,11.53,0,110.3,13.31,14.28,260.0
"2009-04-08 01:46:00",781025,10.44,300.8,6.634,1.084,15.1,105.548,13.48,14.71,11.58,0,110.3,13.31,14.27,262.8
"2009-04-08 01:46:30",781026,10.64,299.1,5.941,1.299,14.92,105.548,13.48,14.64,11.44,0,110.3,13.31,14.27,261.1
"2009-04-08 01:47:00",781027,11.5,304.7,6.261,1.157,16.46,105.548,13.48,14.66,11.53,0,110.3,13.31,14.27,266.7
"2009-04-08 01:47:30",781028,10.08,298.6,5.452,0.923,13.79,105.548,13.48,14.62,11.47,0,110.3,13.31,14.27,260.6
"2009-04-08 01:48:00",781029,10.86,303.1,6.892,1.36,15.17,105.5415,13.46,14.63,11.43,0,110.3,13.31,14.26,265.1
"2009-04-08 01:48:30",781030,9.84,296.2,4.442,0.841,12.99,105.5342,13.44,14.57,11.45,0,110.3,13.31,14.24,258.2